LOCATION_NAME,SAMPLE COLLECTION TIME,DOSE EQUIVALENT RATE (nSv/h),GAMMA COUNT RATE R02 (CPM),GAMMA COUNT RATE R03 (CPM),GAMMA COUNT RATE R04 (CPM),GAMMA COUNT RATE R05 (CPM),GAMMA COUNT RATE R06 (CPM),GAMMA COUNT RATE R07 (CPM),GAMMA COUNT RATE R08 (CPM),GAMMA COUNT RATE R09 (CPM),STATUS
UT: SALT LAKE CITY,01/01/2016 00:37:00,,2493.00,1560.00,454.00,255.00,144.00,180.00,103.00,37.00,APPROVED
UT: SALT LAKE CITY,01/01/2016 01:38:00,,2458.00,1543.00,454.00,246.00,142.00,184.00,100.00,38.00,APPROVED
UT: SALT LAKE CITY,01/01/2016 02:38:00,,2431.00,1515.00,457.00,238.00,144.00,182.00,96.00,36.00,APPROVED
UT: SALT LAKE CITY,01/01/2016 03:38:00,,2427.00,1508.00,456.00,233.00,142.00,182.00,96.00,39.00,APPROVED
UT: SALT LAKE CITY,01/01/2016 04:38:00,,2424.00,1497.00,452.00,236.00,141.00,178.00,96.00,36.00,APPROVED
UT: SALT LAKE CITY,01/01/2016 05:39:00,,2418.00,1484.00,440.00,230.00,141.00,178.00,93.00,37.00,APPROVED
UT: SALT LAKE CITY,01/01/2016 06:39:00,,2455.00,1506.00,456.00,225.00,141.00,182.00,85.00,37.00,APPROVED
UT: SALT LAKE CITY,01/01/2016 07:39:00,,2437.00,1487.00,458.00,220.00,142.00,189.00,78.00,35.00,APPROVED
UT: SALT LAKE CITY,01/01/2016 08:39:00,,2446.00,1511.00,460.00,232.00,144.00,189.00,88.00,37.00,APPROVED
UT: SALT LAKE CITY,01/01/2016 09:39:00,,2465.00,1520.00,471.00,223.00,145.00,194.00,77.00,36.00,APPROVED
UT: SALT LAKE CITY,01/01/2016 10:40:00,,2467.00,1547.00,478.00,231.00,146.00,195.00,88.00,38.00,APPROVED
UT: SALT LAKE CITY,01/01/2016 11:40:00,,2459.00,1541.00,475.00,233.00,146.00,196.00,85.00,37.00,APPROVED
UT: SALT LAKE CITY,01/01/2016 12:40:00,,2473.00,1537.00,484.00,222.00,147.00,203.00,75.00,37.00,APPROVED
UT: SALT LAKE CITY,01/01/2016 13:40:00,,2483.00,1545.00,486.00,224.00,146.00,204.00,74.00,37.00,APPROVED
UT: SALT LAKE CITY,01/01/2016 14:41:00,,2509.00,1573.00,494.00,229.00,147.00,208.00,77.00,37.00,APPROVED
UT: SALT LAKE CITY,01/01/2016 15:41:00,,2567.00,1638.00,519.00,238.00,156.00,213.00,82.00,39.00,APPROVED
UT: SALT LAKE CITY,01/01/2016 16:41:00,,2557.00,1642.00,513.00,255.00,152.00,214.00,94.00,39.00,APPROVED
UT: SALT LAKE CITY,01/01/2016 17:41:00,,2530.00,1608.00,474.00,255.00,152.00,200.00,100.00,37.00,APPROVED
UT: SALT LAKE CITY,01/01/2016 18:41:00,,2537.00,1595.00,465.00,257.00,147.00,186.00,103.00,38.00,APPROVED
UT: SALT LAKE CITY,01/01/2016 19:42:00,,2558.00,1615.00,463.00,258.00,148.00,186.00,104.00,39.00,APPROVED
UT: SALT LAKE CITY,01/01/2016 20:42:00,,2569.00,1600.00,456.00,259.00,147.00,184.00,106.00,39.00,APPROVED
UT: SALT LAKE CITY,01/01/2016 21:42:00,,2549.00,1600.00,449.00,261.00,146.00,177.00,104.00,38.00,APPROVED
UT: SALT LAKE CITY,01/01/2016 22:42:00,,2533.00,1594.00,444.00,252.00,147.00,179.00,105.00,38.00,APPROVED
UT: SALT LAKE CITY,01/01/2016 23:42:00,,2519.00,1572.00,451.00,255.00,147.00,178.00,102.00,37.00,APPROVED
UT: SALT LAKE CITY,01/02/2016 00:43:00,,2529.00,1584.00,451.00,252.00,148.00,181.00,104.00,37.00,APPROVED
UT: SALT LAKE CITY,01/02/2016 01:43:00,,2503.00,1558.00,457.00,245.00,145.00,181.00,101.00,37.00,APPROVED
UT: SALT LAKE CITY,01/02/2016 02:43:00,,2480.00,1542.00,460.00,245.00,143.00,188.00,96.00,36.00,APPROVED
UT: SALT LAKE CITY,01/02/2016 03:43:00,,2466.00,1549.00,463.00,240.00,145.00,186.00,97.00,38.00,APPROVED
UT: SALT LAKE CITY,01/02/2016 04:44:00,,2464.00,1543.00,461.00,237.00,144.00,186.00,94.00,36.00,APPROVED
UT: SALT LAKE CITY,01/02/2016 05:44:00,,2466.00,1549.00,460.00,240.00,149.00,187.00,96.00,37.00,APPROVED
UT: SALT LAKE CITY,01/02/2016 06:44:00,,2520.00,1578.00,473.00,242.00,145.00,190.00,99.00,39.00,APPROVED
UT: SALT LAKE CITY,01/02/2016 07:44:00,,2536.00,1599.00,483.00,249.00,149.00,190.00,97.00,38.00,APPROVED
UT: SALT LAKE CITY,01/02/2016 08:44:00,,2503.00,1595.00,482.00,248.00,149.00,196.00,98.00,40.00,APPROVED
UT: SALT LAKE CITY,01/02/2016 09:45:00,,2554.00,1638.00,501.00,255.00,153.00,206.00,98.00,39.00,APPROVED
UT: SALT LAKE CITY,01/02/2016 10:45:00,,2608.00,1670.00,506.00,259.00,158.00,207.00,102.00,40.00,APPROVED
UT: SALT LAKE CITY,01/02/2016 11:45:00,,2615.00,1688.00,509.00,265.00,157.00,209.00,102.00,39.00,APPROVED
UT: SALT LAKE CITY,01/02/2016 12:45:00,,2633.00,1712.00,522.00,266.00,158.00,210.00,106.00,41.00,APPROVED
UT: SALT LAKE CITY,01/02/2016 13:46:00,,2559.00,1659.00,505.00,259.00,153.00,203.00,101.00,39.00,APPROVED
UT: SALT LAKE CITY,01/02/2016 14:46:00,,2601.00,1690.00,512.00,267.00,156.00,207.00,102.00,39.00,APPROVED
UT: SALT LAKE CITY,01/02/2016 15:46:00,,2637.00,1720.00,519.00,272.00,159.00,215.00,109.00,40.00,APPROVED
UT: SALT LAKE CITY,01/02/2016 16:46:00,,2688.00,1749.00,525.00,280.00,161.00,215.00,108.00,41.00,APPROVED
UT: SALT LAKE CITY,01/02/2016 17:46:00,,2677.00,1729.00,517.00,276.00,155.00,207.00,110.00,40.00,APPROVED
UT: SALT LAKE CITY,01/02/2016 18:47:00,,2635.00,1671.00,490.00,275.00,155.00,201.00,108.00,40.00,APPROVED
UT: SALT LAKE CITY,01/02/2016 19:47:00,,2628.00,1652.00,476.00,274.00,154.00,189.00,109.00,40.00,APPROVED
UT: SALT LAKE CITY,01/02/2016 20:47:00,,2648.00,1676.00,473.00,279.00,153.00,194.00,110.00,39.00,APPROVED
UT: SALT LAKE CITY,01/02/2016 21:47:00,,2640.00,1684.00,480.00,282.00,154.00,194.00,111.00,40.00,APPROVED
UT: SALT LAKE CITY,01/02/2016 22:48:00,,2641.00,1694.00,480.00,285.00,153.00,193.00,115.00,41.00,APPROVED
UT: SALT LAKE CITY,01/02/2016 23:48:00,,2634.00,1681.00,477.00,280.00,154.00,191.00,112.00,39.00,APPROVED
UT: SALT LAKE CITY,01/03/2016 00:48:00,,2614.00,1659.00,483.00,270.00,153.00,193.00,109.00,39.00,APPROVED
UT: SALT LAKE CITY,01/03/2016 01:48:00,,2578.00,1636.00,471.00,264.00,152.00,195.00,108.00,38.00,APPROVED
UT: SALT LAKE CITY,01/03/2016 02:48:00,,2552.00,1610.00,477.00,260.00,153.00,191.00,103.00,40.00,APPROVED
UT: SALT LAKE CITY,01/03/2016 03:49:00,,2528.00,1580.00,468.00,255.00,148.00,187.00,103.00,38.00,APPROVED
UT: SALT LAKE CITY,01/03/2016 04:49:00,,2528.00,1592.00,465.00,252.00,149.00,183.00,104.00,39.00,APPROVED
UT: SALT LAKE CITY,01/03/2016 05:49:00,,2540.00,1587.00,472.00,254.00,148.00,185.00,101.00,39.00,APPROVED
UT: SALT LAKE CITY,01/03/2016 06:49:00,,2525.00,1599.00,469.00,254.00,148.00,189.00,104.00,39.00,APPROVED
UT: SALT LAKE CITY,01/03/2016 07:50:00,,2556.00,1596.00,468.00,254.00,151.00,186.00,105.00,37.00,APPROVED
UT: SALT LAKE CITY,01/03/2016 08:50:00,,2558.00,1597.00,464.00,258.00,148.00,187.00,104.00,39.00,APPROVED
UT: SALT LAKE CITY,01/03/2016 09:50:00,,2555.00,1592.00,466.00,257.00,149.00,186.00,101.00,38.00,APPROVED
UT: SALT LAKE CITY,01/03/2016 10:50:00,,2534.00,1595.00,464.00,252.00,151.00,182.00,102.00,37.00,APPROVED
UT: SALT LAKE CITY,01/03/2016 11:50:00,,2564.00,1602.00,470.00,254.00,148.00,185.00,101.00,37.00,APPROVED
UT: SALT LAKE CITY,01/03/2016 12:51:00,,2578.00,1651.00,480.00,266.00,151.00,193.00,106.00,40.00,APPROVED
UT: SALT LAKE CITY,01/03/2016 13:51:00,,2614.00,1682.00,489.00,276.00,156.00,199.00,109.00,40.00,APPROVED
UT: SALT LAKE CITY,01/03/2016 14:51:00,,2607.00,1690.00,495.00,280.00,155.00,202.00,111.00,39.00,APPROVED
UT: SALT LAKE CITY,01/03/2016 15:51:00,,2623.00,1697.00,502.00,279.00,158.00,202.00,111.00,40.00,APPROVED
UT: SALT LAKE CITY,01/03/2016 16:51:00,,2691.00,1767.00,517.00,295.00,162.00,210.00,116.00,42.00,APPROVED
UT: SALT LAKE CITY,01/03/2016 17:52:00,,2675.00,1748.00,505.00,295.00,161.00,207.00,113.00,41.00,APPROVED
UT: SALT LAKE CITY,01/03/2016 18:52:00,,2656.00,1709.00,494.00,284.00,157.00,200.00,112.00,41.00,APPROVED
UT: SALT LAKE CITY,01/03/2016 19:52:00,,2644.00,1682.00,483.00,286.00,154.00,196.00,111.00,41.00,APPROVED
UT: SALT LAKE CITY,01/03/2016 20:52:00,,2660.00,1736.00,489.00,294.00,158.00,201.00,114.00,40.00,APPROVED
UT: SALT LAKE CITY,01/03/2016 21:53:00,,2672.00,1740.00,497.00,301.00,160.00,203.00,118.00,42.00,APPROVED
UT: SALT LAKE CITY,01/03/2016 22:53:00,,2667.00,1725.00,495.00,296.00,160.00,201.00,116.00,44.00,APPROVED
UT: SALT LAKE CITY,01/03/2016 23:53:00,,2659.00,1721.00,494.00,292.00,160.00,205.00,115.00,42.00,APPROVED
UT: SALT LAKE CITY,01/04/2016 00:53:00,,2646.00,1741.00,497.00,293.00,160.00,203.00,116.00,41.00,APPROVED
UT: SALT LAKE CITY,01/04/2016 01:53:00,,2603.00,1686.00,491.00,282.00,157.00,201.00,113.00,40.00,APPROVED
UT: SALT LAKE CITY,01/04/2016 02:54:00,,2575.00,1665.00,486.00,279.00,155.00,199.00,112.00,39.00,APPROVED
UT: SALT LAKE CITY,01/04/2016 03:54:00,,2584.00,1663.00,485.00,275.00,157.00,200.00,109.00,38.00,APPROVED
UT: SALT LAKE CITY,01/04/2016 04:54:00,,2581.00,1682.00,491.00,282.00,156.00,201.00,111.00,40.00,APPROVED
UT: SALT LAKE CITY,01/04/2016 05:54:00,,2615.00,1706.00,496.00,285.00,160.00,204.00,113.00,40.00,APPROVED
UT: SALT LAKE CITY,01/04/2016 06:55:00,,2628.00,1729.00,505.00,290.00,159.00,207.00,114.00,41.00,APPROVED
UT: SALT LAKE CITY,01/04/2016 07:55:00,,2643.00,1756.00,515.00,297.00,163.00,215.00,115.00,40.00,APPROVED
UT: SALT LAKE CITY,01/04/2016 08:55:00,,2662.00,1789.00,532.00,300.00,168.00,218.00,118.00,42.00,APPROVED
UT: SALT LAKE CITY,01/04/2016 09:55:00,,2669.00,1780.00,528.00,304.00,165.00,220.00,118.00,43.00,APPROVED
UT: SALT LAKE CITY,01/04/2016 10:55:00,,2651.00,1776.00,526.00,297.00,166.00,217.00,119.00,42.00,APPROVED
UT: SALT LAKE CITY,01/04/2016 11:56:00,,2683.00,1811.00,533.00,312.00,168.00,221.00,119.00,43.00,APPROVED
UT: SALT LAKE CITY,01/04/2016 12:56:00,,2736.00,1869.00,555.00,313.00,174.00,233.00,122.00,43.00,APPROVED
UT: SALT LAKE CITY,01/04/2016 13:56:00,,2786.00,1929.00,572.00,332.00,177.00,240.00,128.00,45.00,APPROVED
UT: SALT LAKE CITY,01/04/2016 14:56:00,,2769.00,1937.00,576.00,334.00,177.00,242.00,125.00,45.00,APPROVED
UT: SALT LAKE CITY,01/04/2016 15:57:00,,2699.00,1830.00,550.00,313.00,172.00,230.00,122.00,44.00,APPROVED
UT: SALT LAKE CITY,01/04/2016 16:57:00,,2662.00,1788.00,528.00,305.00,169.00,220.00,118.00,43.00,APPROVED
UT: SALT LAKE CITY,01/04/2016 17:57:00,,2680.00,1782.00,514.00,303.00,166.00,210.00,119.00,43.00,APPROVED
UT: SALT LAKE CITY,01/04/2016 18:57:00,,2654.00,1753.00,507.00,300.00,163.00,209.00,119.00,42.00,APPROVED
UT: SALT LAKE CITY,01/04/2016 19:57:00,,2646.00,1741.00,499.00,301.00,160.00,207.00,119.00,42.00,APPROVED
UT: SALT LAKE CITY,01/04/2016 20:58:00,,2675.00,1771.00,503.00,305.00,162.00,205.00,118.00,41.00,APPROVED
UT: SALT LAKE CITY,01/04/2016 21:58:00,,2768.00,1843.00,522.00,329.00,171.00,218.00,126.00,44.00,APPROVED
UT: SALT LAKE CITY,01/04/2016 22:58:00,,2759.00,1877.00,535.00,338.00,170.00,228.00,128.00,44.00,APPROVED
UT: SALT LAKE CITY,01/04/2016 23:58:00,,2782.00,1875.00,532.00,336.00,172.00,223.00,127.00,46.00,APPROVED
UT: SALT LAKE CITY,01/05/2016 00:58:00,,2760.00,1873.00,538.00,332.00,171.00,226.00,129.00,44.00,APPROVED
UT: SALT LAKE CITY,01/05/2016 01:59:00,,2764.00,1880.00,542.00,332.00,172.00,227.00,129.00,45.00,APPROVED
UT: SALT LAKE CITY,01/05/2016 02:59:00,,2749.00,1877.00,546.00,332.00,174.00,228.00,127.00,44.00,APPROVED
UT: SALT LAKE CITY,01/05/2016 03:59:00,,2773.00,1890.00,542.00,338.00,175.00,230.00,126.00,45.00,APPROVED
UT: SALT LAKE CITY,01/05/2016 04:59:00,,2750.00,1885.00,542.00,326.00,175.00,228.00,128.00,45.00,APPROVED
UT: SALT LAKE CITY,01/05/2016 06:00:00,,2739.00,1857.00,532.00,329.00,172.00,221.00,124.00,43.00,APPROVED
UT: SALT LAKE CITY,01/05/2016 07:00:00,,2722.00,1858.00,536.00,323.00,170.00,227.00,126.00,45.00,APPROVED
UT: SALT LAKE CITY,01/05/2016 08:00:00,,2731.00,1865.00,541.00,326.00,172.00,229.00,127.00,44.00,APPROVED
UT: SALT LAKE CITY,01/05/2016 09:00:00,,2775.00,1895.00,544.00,333.00,178.00,229.00,129.00,44.00,APPROVED
UT: SALT LAKE CITY,01/05/2016 10:00:00,,2801.00,1938.00,553.00,348.00,178.00,238.00,133.00,47.00,APPROVED
UT: SALT LAKE CITY,01/05/2016 11:01:00,,2784.00,1943.00,556.00,346.00,179.00,235.00,132.00,46.00,APPROVED
UT: SALT LAKE CITY,01/05/2016 12:01:00,,2759.00,1925.00,556.00,345.00,179.00,235.00,131.00,47.00,APPROVED
UT: SALT LAKE CITY,01/05/2016 13:01:00,,2797.00,1951.00,565.00,354.00,183.00,244.00,134.00,48.00,APPROVED
UT: SALT LAKE CITY,01/05/2016 14:01:00,,2861.00,2020.00,584.00,366.00,185.00,245.00,135.00,46.00,APPROVED
UT: SALT LAKE CITY,01/05/2016 15:02:00,,3346.00,2436.00,698.00,440.00,214.00,297.00,158.00,53.00,APPROVED
UT: SALT LAKE CITY,01/05/2016 16:02:00,,3107.00,2255.00,662.00,422.00,208.00,284.00,154.00,52.00,APPROVED
UT: SALT LAKE CITY,01/05/2016 17:02:00,,2856.00,1999.00,589.00,371.00,188.00,248.00,134.00,47.00,APPROVED
UT: SALT LAKE CITY,01/05/2016 18:02:00,,2784.00,1938.00,559.00,351.00,181.00,235.00,132.00,45.00,APPROVED
UT: SALT LAKE CITY,01/05/2016 19:02:00,,2763.00,1904.00,542.00,348.00,177.00,232.00,134.00,46.00,APPROVED
UT: SALT LAKE CITY,01/05/2016 20:03:00,,2744.00,1888.00,537.00,349.00,176.00,228.00,133.00,45.00,APPROVED
UT: SALT LAKE CITY,01/05/2016 21:03:00,,2713.00,1832.00,521.00,336.00,170.00,219.00,127.00,46.00,APPROVED
UT: SALT LAKE CITY,01/05/2016 22:03:00,,2714.00,1846.00,520.00,329.00,175.00,223.00,128.00,46.00,APPROVED
UT: SALT LAKE CITY,01/05/2016 23:03:00,,2760.00,1906.00,533.00,348.00,177.00,227.00,131.00,45.00,APPROVED
UT: SALT LAKE CITY,01/06/2016 00:03:00,,2756.00,1922.00,546.00,356.00,178.00,231.00,134.00,48.00,APPROVED
UT: SALT LAKE CITY,01/06/2016 01:04:00,,2728.00,1893.00,541.00,343.00,176.00,229.00,130.00,45.00,APPROVED
UT: SALT LAKE CITY,01/06/2016 02:04:00,,2719.00,1890.00,539.00,339.00,174.00,230.00,130.00,45.00,APPROVED
UT: SALT LAKE CITY,01/06/2016 03:04:00,,2714.00,1900.00,543.00,354.00,177.00,234.00,132.00,46.00,APPROVED
UT: SALT LAKE CITY,01/06/2016 04:04:00,,2600.00,1745.00,504.00,309.00,167.00,210.00,122.00,42.00,APPROVED
UT: SALT LAKE CITY,01/06/2016 05:05:00,,2524.00,1600.00,464.00,270.00,151.00,185.00,107.00,38.00,APPROVED
UT: SALT LAKE CITY,01/06/2016 06:05:00,,2504.00,1579.00,452.00,258.00,149.00,177.00,106.00,39.00,APPROVED
UT: SALT LAKE CITY,01/06/2016 07:05:00,,2531.00,1610.00,454.00,267.00,150.00,181.00,107.00,40.00,APPROVED
UT: SALT LAKE CITY,01/06/2016 08:05:00,,2675.00,1803.00,506.00,312.00,166.00,212.00,121.00,44.00,APPROVED
UT: SALT LAKE CITY,01/06/2016 09:05:00,,2695.00,1868.00,541.00,331.00,175.00,229.00,127.00,44.00,APPROVED
UT: SALT LAKE CITY,01/06/2016 10:06:00,,2662.00,1835.00,518.00,328.00,172.00,221.00,123.00,46.00,APPROVED
UT: SALT LAKE CITY,01/06/2016 11:06:00,,2729.00,1892.00,540.00,343.00,176.00,225.00,127.00,46.00,APPROVED
UT: SALT LAKE CITY,01/06/2016 12:06:00,,2817.00,2003.00,572.00,370.00,186.00,246.00,139.00,47.00,APPROVED
UT: SALT LAKE CITY,01/06/2016 13:06:00,,2840.00,2044.00,585.00,383.00,194.00,249.00,142.00,48.00,APPROVED
UT: SALT LAKE CITY,01/06/2016 14:07:00,,2853.00,2053.00,598.00,384.00,194.00,261.00,142.00,48.00,APPROVED
UT: SALT LAKE CITY,01/06/2016 15:07:00,,2807.00,2016.00,581.00,375.00,184.00,251.00,139.00,49.00,APPROVED
UT: SALT LAKE CITY,01/06/2016 16:07:00,,2786.00,1960.00,566.00,357.00,178.00,246.00,135.00,47.00,APPROVED
UT: SALT LAKE CITY,01/06/2016 17:07:00,,2762.00,1908.00,549.00,348.00,179.00,233.00,129.00,47.00,APPROVED
UT: SALT LAKE CITY,01/06/2016 18:07:00,,2705.00,1815.00,523.00,326.00,169.00,216.00,123.00,43.00,APPROVED
UT: SALT LAKE CITY,01/06/2016 19:08:00,,2604.00,1701.00,482.00,295.00,158.00,197.00,116.00,41.00,APPROVED
UT: SALT LAKE CITY,01/06/2016 20:08:00,,2756.00,1801.00,510.00,304.00,161.00,204.00,121.00,43.00,APPROVED
UT: SALT LAKE CITY,01/06/2016 21:08:00,,2678.00,1719.00,486.00,291.00,158.00,197.00,116.00,41.00,APPROVED
UT: SALT LAKE CITY,01/06/2016 21:48:00,,2604.00,1649.00,466.00,275.00,149.00,184.00,110.00,40.00,APPROVED
UT: SALT LAKE CITY,01/06/2016 22:55:00,,2533.00,1518.00,426.00,237.00,136.00,165.00,101.00,37.00,APPROVED
UT: SALT LAKE CITY,01/06/2016 23:55:00,,2636.00,1673.00,457.00,273.00,149.00,185.00,112.00,40.00,APPROVED
UT: SALT LAKE CITY,01/07/2016 00:55:00,,2735.00,1780.00,502.00,302.00,165.00,201.00,121.00,42.00,APPROVED
UT: SALT LAKE CITY,01/07/2016 01:55:00,,2868.00,1933.00,539.00,335.00,176.00,224.00,130.00,44.00,APPROVED
UT: SALT LAKE CITY,01/07/2016 02:55:00,,3159.00,2194.00,608.00,385.00,193.00,257.00,142.00,48.00,APPROVED
UT: SALT LAKE CITY,01/07/2016 03:56:00,,3258.00,2281.00,637.00,411.00,207.00,268.00,147.00,51.00,APPROVED
UT: SALT LAKE CITY,01/07/2016 04:56:00,,3108.00,2162.00,618.00,391.00,195.00,255.00,143.00,48.00,APPROVED
UT: SALT LAKE CITY,01/07/2016 05:56:00,,2878.00,1959.00,558.00,347.00,182.00,228.00,131.00,45.00,APPROVED
UT: SALT LAKE CITY,01/07/2016 06:56:00,,2759.00,1877.00,534.00,335.00,173.00,223.00,124.00,44.00,APPROVED
UT: SALT LAKE CITY,01/07/2016 07:56:00,,2561.00,1698.00,490.00,296.00,160.00,200.00,118.00,43.00,APPROVED
UT: SALT LAKE CITY,01/07/2016 08:57:00,,2471.00,1596.00,460.00,276.00,153.00,185.00,110.00,40.00,APPROVED
UT: SALT LAKE CITY,01/07/2016 09:57:00,,2445.00,1573.00,453.00,267.00,149.00,183.00,108.00,39.00,APPROVED
UT: SALT LAKE CITY,01/07/2016 10:57:00,,2482.00,1615.00,458.00,278.00,154.00,186.00,111.00,40.00,APPROVED
UT: SALT LAKE CITY,01/07/2016 11:57:00,,2518.00,1663.00,476.00,288.00,156.00,197.00,116.00,42.00,APPROVED
UT: SALT LAKE CITY,01/07/2016 12:58:00,,2541.00,1720.00,492.00,306.00,163.00,206.00,122.00,43.00,APPROVED
UT: SALT LAKE CITY,01/07/2016 13:58:00,,2566.00,1744.00,500.00,303.00,163.00,210.00,119.00,42.00,APPROVED
UT: SALT LAKE CITY,01/07/2016 14:58:00,,2562.00,1711.00,498.00,299.00,163.00,208.00,115.00,41.00,APPROVED
UT: SALT LAKE CITY,01/07/2016 15:58:00,,2539.00,1694.00,483.00,292.00,159.00,203.00,115.00,40.00,APPROVED
UT: SALT LAKE CITY,01/07/2016 16:58:00,,2527.00,1685.00,487.00,287.00,158.00,198.00,112.00,41.00,APPROVED
UT: SALT LAKE CITY,01/07/2016 17:59:00,,2528.00,1668.00,480.00,286.00,155.00,199.00,114.00,41.00,APPROVED
UT: SALT LAKE CITY,01/07/2016 18:59:00,,2524.00,1654.00,479.00,284.00,155.00,197.00,113.00,42.00,APPROVED
UT: SALT LAKE CITY,01/07/2016 19:59:00,,2556.00,1689.00,487.00,290.00,160.00,198.00,117.00,42.00,APPROVED
UT: SALT LAKE CITY,01/07/2016 20:59:00,,2567.00,1717.00,491.00,298.00,163.00,204.00,120.00,42.00,APPROVED
UT: SALT LAKE CITY,01/07/2016 22:00:00,,2595.00,1726.00,493.00,301.00,163.00,205.00,119.00,42.00,APPROVED
UT: SALT LAKE CITY,01/07/2016 23:00:00,,2615.00,1746.00,502.00,308.00,165.00,209.00,119.00,42.00,APPROVED
UT: SALT LAKE CITY,01/08/2016 00:00:00,,2642.00,1775.00,509.00,314.00,165.00,208.00,123.00,45.00,APPROVED
UT: SALT LAKE CITY,01/08/2016 01:00:00,,2755.00,1827.00,523.00,321.00,170.00,220.00,123.00,43.00,APPROVED
UT: SALT LAKE CITY,01/08/2016 02:00:00,,2732.00,1823.00,521.00,320.00,170.00,218.00,124.00,42.00,APPROVED
UT: SALT LAKE CITY,01/08/2016 03:01:00,,2632.00,1740.00,501.00,304.00,163.00,207.00,119.00,44.00,APPROVED
UT: SALT LAKE CITY,01/08/2016 04:01:00,,2647.00,1737.00,500.00,302.00,164.00,205.00,117.00,43.00,APPROVED
UT: SALT LAKE CITY,01/08/2016 05:01:00,,2713.00,1804.00,519.00,316.00,167.00,214.00,122.00,44.00,APPROVED
UT: SALT LAKE CITY,01/08/2016 06:01:00,,2848.00,1920.00,546.00,329.00,176.00,223.00,127.00,45.00,APPROVED
UT: SALT LAKE CITY,01/08/2016 07:02:00,,2804.00,1889.00,543.00,326.00,174.00,224.00,127.00,44.00,APPROVED
UT: SALT LAKE CITY,01/08/2016 08:02:00,,2829.00,1894.00,538.00,326.00,173.00,218.00,124.00,45.00,APPROVED
UT: SALT LAKE CITY,01/08/2016 09:02:00,,2994.00,2017.00,575.00,353.00,184.00,238.00,132.00,45.00,APPROVED
UT: SALT LAKE CITY,01/08/2016 10:02:00,,3034.00,2074.00,585.00,364.00,182.00,239.00,136.00,46.00,APPROVED
UT: SALT LAKE CITY,01/08/2016 11:02:00,,3041.00,2083.00,592.00,367.00,186.00,245.00,139.00,46.00,APPROVED
UT: SALT LAKE CITY,01/08/2016 12:03:00,,3114.00,2133.00,605.00,372.00,190.00,249.00,140.00,46.00,APPROVED
UT: SALT LAKE CITY,01/08/2016 13:03:00,,2984.00,1982.00,577.00,345.00,179.00,234.00,130.00,45.00,APPROVED
UT: SALT LAKE CITY,01/08/2016 14:03:00,,2659.00,1673.00,486.00,283.00,155.00,198.00,112.00,40.00,APPROVED
UT: SALT LAKE CITY,01/08/2016 15:03:00,,2512.00,1565.00,453.00,259.00,147.00,178.00,107.00,39.00,APPROVED
UT: SALT LAKE CITY,01/08/2016 16:03:00,,2453.00,1521.00,443.00,251.00,142.00,175.00,102.00,37.00,APPROVED
UT: SALT LAKE CITY,01/08/2016 17:04:00,,2451.00,1513.00,441.00,247.00,143.00,173.00,103.00,37.00,APPROVED
UT: SALT LAKE CITY,01/08/2016 19:04:00,,2404.00,1461.00,422.00,232.00,140.00,164.00,99.00,37.00,APPROVED
UT: SALT LAKE CITY,01/08/2016 20:04:00,,2421.00,1472.00,419.00,234.00,139.00,161.00,101.00,36.00,APPROVED
UT: SALT LAKE CITY,01/08/2016 21:05:00,,2436.00,1491.00,425.00,235.00,140.00,164.00,97.00,38.00,APPROVED
UT: SALT LAKE CITY,01/08/2016 22:05:00,,2443.00,1489.00,424.00,237.00,138.00,163.00,100.00,38.00,APPROVED
UT: SALT LAKE CITY,01/08/2016 23:05:00,,2488.00,1540.00,433.00,245.00,143.00,171.00,105.00,37.00,APPROVED
UT: SALT LAKE CITY,01/09/2016 00:05:00,,2538.00,1592.00,450.00,256.00,147.00,176.00,107.00,39.00,APPROVED
UT: SALT LAKE CITY,01/09/2016 01:05:00,,2454.00,1514.00,434.00,245.00,140.00,171.00,101.00,39.00,APPROVED
UT: SALT LAKE CITY,01/09/2016 02:06:00,,2431.00,1480.00,426.00,237.00,138.00,167.00,101.00,36.00,APPROVED
UT: SALT LAKE CITY,01/09/2016 03:06:00,,2427.00,1474.00,423.00,238.00,140.00,165.00,98.00,35.00,APPROVED
UT: SALT LAKE CITY,01/09/2016 04:06:00,,2403.00,1465.00,425.00,229.00,139.00,165.00,101.00,36.00,APPROVED
UT: SALT LAKE CITY,01/09/2016 05:06:00,,2398.00,1452.00,418.00,229.00,138.00,160.00,98.00,36.00,APPROVED
UT: SALT LAKE CITY,01/09/2016 06:07:00,,2395.00,1451.00,423.00,233.00,135.00,165.00,97.00,37.00,APPROVED
UT: SALT LAKE CITY,01/09/2016 07:07:00,,2399.00,1461.00,417.00,230.00,139.00,162.00,97.00,37.00,APPROVED
UT: SALT LAKE CITY,01/09/2016 08:07:00,,2413.00,1470.00,424.00,232.00,137.00,161.00,98.00,37.00,APPROVED
UT: SALT LAKE CITY,01/09/2016 09:07:00,,2409.00,1473.00,421.00,230.00,141.00,164.00,95.00,36.00,APPROVED
UT: SALT LAKE CITY,01/09/2016 10:07:00,,2422.00,1483.00,427.00,233.00,139.00,166.00,100.00,37.00,APPROVED
UT: SALT LAKE CITY,01/09/2016 11:08:00,,2420.00,1468.00,429.00,233.00,140.00,166.00,98.00,36.00,APPROVED
UT: SALT LAKE CITY,01/09/2016 12:08:00,,2410.00,1459.00,421.00,229.00,139.00,164.00,98.00,36.00,APPROVED
UT: SALT LAKE CITY,01/09/2016 13:08:00,,2400.00,1455.00,417.00,225.00,135.00,160.00,100.00,36.00,APPROVED
UT: SALT LAKE CITY,01/09/2016 14:08:00,,2409.00,1449.00,419.00,227.00,136.00,162.00,97.00,38.00,APPROVED
UT: SALT LAKE CITY,01/09/2016 15:09:00,,2403.00,1465.00,421.00,225.00,138.00,162.00,98.00,37.00,APPROVED
UT: SALT LAKE CITY,01/09/2016 16:09:00,,2427.00,1469.00,421.00,230.00,139.00,164.00,99.00,36.00,APPROVED
UT: SALT LAKE CITY,01/09/2016 17:09:00,,2429.00,1458.00,421.00,224.00,137.00,163.00,97.00,38.00,APPROVED
UT: SALT LAKE CITY,01/09/2016 18:09:00,,2445.00,1487.00,427.00,233.00,143.00,166.00,96.00,36.00,APPROVED
UT: SALT LAKE CITY,01/09/2016 19:09:00,,2478.00,1528.00,427.00,241.00,140.00,169.00,101.00,36.00,APPROVED
UT: SALT LAKE CITY,01/09/2016 20:10:00,,2475.00,1513.00,435.00,244.00,144.00,169.00,103.00,37.00,APPROVED
UT: SALT LAKE CITY,01/09/2016 21:10:00,,2487.00,1516.00,428.00,244.00,144.00,168.00,105.00,36.00,APPROVED
UT: SALT LAKE CITY,01/09/2016 22:10:00,,2462.00,1520.00,426.00,239.00,140.00,171.00,104.00,38.00,APPROVED
UT: SALT LAKE CITY,01/09/2016 23:10:00,,2469.00,1499.00,426.00,243.00,142.00,168.00,102.00,37.00,APPROVED
UT: SALT LAKE CITY,01/10/2016 00:11:00,,2450.00,1504.00,418.00,240.00,139.00,168.00,101.00,36.00,APPROVED
UT: SALT LAKE CITY,01/10/2016 01:11:00,,2446.00,1500.00,426.00,241.00,144.00,166.00,102.00,38.00,APPROVED
UT: SALT LAKE CITY,01/10/2016 02:11:00,,2414.00,1488.00,431.00,240.00,140.00,168.00,97.00,37.00,APPROVED
UT: SALT LAKE CITY,01/10/2016 03:11:00,,2422.00,1479.00,429.00,237.00,145.00,168.00,100.00,37.00,APPROVED
UT: SALT LAKE CITY,01/10/2016 04:11:00,,2419.00,1468.00,419.00,231.00,139.00,163.00,100.00,35.00,APPROVED
UT: SALT LAKE CITY,01/10/2016 05:12:00,,2446.00,1510.00,435.00,237.00,140.00,167.00,101.00,37.00,APPROVED
UT: SALT LAKE CITY,01/10/2016 06:12:00,,2425.00,1497.00,434.00,243.00,142.00,168.00,101.00,38.00,APPROVED
UT: SALT LAKE CITY,01/10/2016 07:12:00,,2458.00,1520.00,436.00,238.00,142.00,171.00,102.00,38.00,APPROVED
UT: SALT LAKE CITY,01/10/2016 08:12:00,,2494.00,1560.00,450.00,255.00,150.00,178.00,105.00,39.00,APPROVED
UT: SALT LAKE CITY,01/21/2016 00:18:00,,2214.00,1276.00,371.00,188.00,121.00,137.00,89.00,32.00,APPROVED